QTR60L OTHH-EGCC

Flight info

Callsign QTR60L
Flight time N/A
Altitude 34000
Route ULIKA M430 KSA T503 OVANO L768 FIRAS R655 KTN R785 NIKAS L619 VESAR UN135 TUKTU/N0487F360 UN135 IMR UN127 RIKSO DCT TALAS DCT MAVAR DCT ULPIN DCT MONFA DCT SOTOV DCT XEBIX DCT USUDO DCT LIRSU DCT SPI DCT DENUT L610 LAM UN57 WELIN T420 ELVOS
Aircraft B77W/H-SDE1E2E3FGHIJ2J3J4J5M1RWXY/LB1D1

Departure

Time 2026-05-06 01:07
Airport Hamad International Airport (OTHH)

Arrival

Time N/A
Airport Manchester Airport (EGCC)
Time Latitude Longitude Altitude Speed Heading
2026-05-06 00:14 25.26671 51.61237 27 ft 0 kts 248°
2026-05-06 00:48 25.26676 51.61250 27 ft 4 kts 248°
2026-05-06 00:49 25.26685 51.61274 27 ft 3 kts 248°
2026-05-06 00:49 25.26691 51.61301 27 ft 4 kts 272°
2026-05-06 00:49 25.26684 51.61328 26 ft 4 kts 310°
2026-05-06 00:49 25.26664 51.61346 26 ft 4 kts 334°
2026-05-06 00:50 25.26642 51.61356 27 ft 1 kts 338°
2026-05-06 00:52 25.26652 51.61352 27 ft 6 kts 338°
2026-05-06 00:52 25.26701 51.61339 27 ft 15 kts 358°
2026-05-06 00:52 25.26814 51.61379 27 ft 17 kts 22°
2026-05-06 00:53 25.26924 51.61431 27 ft 17 kts 23°
2026-05-06 00:53 25.27011 51.61515 27 ft 17 kts 65°
2026-05-06 00:53 25.27053 51.61627 27 ft 11 kts 68°
2026-05-06 00:53 25.27104 51.61681 27 ft 11 kts
2026-05-06 00:54 25.27186 51.61659 27 ft 13 kts 338°
2026-05-06 00:54 25.27277 51.61620 27 ft 15 kts 338°
2026-05-06 00:54 25.27371 51.61578 27 ft 9 kts 338°
2026-05-06 00:54 25.27418 51.61531 27 ft 10 kts 292°
2026-05-06 00:55 25.27407 51.61457 27 ft 11 kts 250°
2026-05-06 00:55 25.27378 51.61369 27 ft 12 kts 250°
2026-05-06 00:55 25.27347 51.61281 27 ft 12 kts 248°
2026-05-06 00:55 25.27314 51.61194 27 ft 12 kts 246°
2026-05-06 00:56 25.27281 51.61105 27 ft 13 kts 248°
2026-05-06 00:56 25.27246 51.61006 27 ft 14 kts 248°
2026-05-06 00:56 25.27209 51.60905 27 ft 14 kts 248°
2026-05-06 00:56 25.27173 51.60804 27 ft 14 kts 248°
2026-05-06 00:57 25.27136 51.60703 27 ft 14 kts 248°
2026-05-06 00:57 25.27099 51.60602 27 ft 14 kts 248°
2026-05-06 00:57 25.27062 51.60502 27 ft 14 kts 248°
2026-05-06 00:57 25.27028 51.60408 27 ft 8 kts 248°
2026-05-06 00:58 25.27009 51.60353 26 ft 8 kts 248°
2026-05-06 00:58 25.27000 51.60328 26 ft 1 kts 248°
2026-05-06 00:58 25.26989 51.60299 26 ft 7 kts 248°
2026-05-06 00:58 25.26976 51.60262 26 ft 0 kts 248°
2026-05-06 01:00 25.26975 51.60262 26 ft 1 kts 248°
2026-05-06 01:00 25.26964 51.60230 26 ft 7 kts 248°
2026-05-06 01:00 25.26948 51.60178 27 ft 7 kts 262°
2026-05-06 01:00 25.26967 51.60131 29 ft 7 kts 321°
2026-05-06 01:01 25.26972 51.60128 27 ft 2 kts 329°
2026-05-06 01:01 25.27014 51.60104 27 ft 12 kts 336°
2026-05-06 01:01 25.27122 51.60055 27 ft 20 kts 338°
2026-05-06 01:01 25.27249 51.60000 28 ft 20 kts 338°
2026-05-06 01:02 25.27375 51.59944 28 ft 20 kts 338°
2026-05-06 01:02 25.27501 51.59888 27 ft 20 kts 338°
2026-05-06 01:02 25.27627 51.59833 26 ft 20 kts 338°
2026-05-06 01:02 25.27754 51.59777 27 ft 20 kts 338°
2026-05-06 01:03 25.27882 51.59720 27 ft 20 kts 338°
2026-05-06 01:03 25.28008 51.59664 27 ft 20 kts 338°
2026-05-06 01:03 25.28134 51.59608 27 ft 20 kts 338°
2026-05-06 01:03 25.28260 51.59553 30 ft 20 kts 338°
2026-05-06 01:04 25.28387 51.59497 29 ft 20 kts 338°
2026-05-06 01:04 25.28513 51.59442 27 ft 20 kts 338°
2026-05-06 01:04 25.28639 51.59386 29 ft 20 kts 338°
2026-05-06 01:04 25.28765 51.59330 25 ft 20 kts 338°
2026-05-06 01:05 25.28891 51.59274 28 ft 20 kts 338°
2026-05-06 01:05 25.29018 51.59219 28 ft 20 kts 338°
2026-05-06 01:05 25.29111 51.59170 29 ft 13 kts 313°
2026-05-06 01:05 25.29111 51.59077 25 ft 13 kts 239°
2026-05-06 01:06 25.29031 51.59029 21 ft 14 kts 188°
2026-05-06 01:06 25.28940 51.59050 24 ft 14 kts 158°
2026-05-06 01:06 25.28834 51.59097 23 ft 26 kts 158°
2026-05-06 01:06 25.28451 51.59265 27 ft 95 kts 158°
2026-05-06 01:07 25.27633 51.59628 19 ft 157 kts 158°
2026-05-06 01:07 25.26449 51.60145 83 ft 197 kts 158°
2026-05-06 01:07 25.25219 51.60685 846 ft 181 kts 159°
2026-05-06 01:07 25.24037 51.61190 1402 ft 191 kts 159°
2026-05-06 01:08 25.22729 51.61748 1610 ft 209 kts 159°
2026-05-06 01:08 25.21297 51.62365 1850 ft 230 kts 158°
2026-05-06 01:08 25.19744 51.63041 2153 ft 250 kts 158°
2026-05-06 01:08 25.18098 51.63788 2665 ft 261 kts 157°
2026-05-06 01:09 25.16383 51.64554 3201 ft 271 kts 157°
2026-05-06 01:09 25.14617 51.65336 3817 ft 277 kts 157°
2026-05-06 01:09 25.12810 51.66136 4449 ft 282 kts 157°
2026-05-06 01:09 25.10969 51.66924 5022 ft 286 kts 163°
2026-05-06 01:10 25.08969 51.66992 5463 ft 295 kts 197°
2026-05-06 01:10 25.07219 51.65862 6038 ft 294 kts 227°
2026-05-06 01:10 25.05814 51.64216 6552 ft 298 kts 227°
2026-05-06 01:10 25.04317 51.62604 7140 ft 303 kts 225°
2026-05-06 01:11 25.02781 51.61011 7818 ft 304 kts 225°
2026-05-06 01:11 25.01232 51.59415 8446 ft 306 kts 225°
2026-05-06 01:11 24.99668 51.57807 9044 ft 309 kts 225°
2026-05-06 01:11 24.98083 51.56186 9642 ft 312 kts 225°
2026-05-06 01:12 24.96490 51.54555 10247 ft 315 kts 225°
2026-05-06 01:12 24.94852 51.52878 10494 ft 331 kts 225°
2026-05-06 01:12 24.93113 51.51097 10651 ft 350 kts 224°
2026-05-06 01:12 24.91281 51.49221 10814 ft 369 kts 224°
2026-05-06 01:13 24.89350 51.47250 10993 ft 387 kts 224°
2026-05-06 01:13 24.87347 51.45208 11389 ft 396 kts 224°
2026-05-06 01:13 24.85487 51.42981 11758 ft 398 kts 239°
2026-05-06 01:13 24.84453 51.40169 12269 ft 398 kts 261°
2026-05-06 01:14 24.84941 51.34262 13602 ft 392 kts 292°